EWG76A EDDP-LKPR

Flight info

Callsign EWG76A
Flight time 0h 30m
Altitude 23000
Route DRN2S/26L DRN Z21 OMELO DCT GOLOP
Aircraft A320/M-SDE3FGHIRWY/LB1

Departure

Time 2026-05-06 16:52
Airport Leipzig/Halle Airport (EDDP)

Arrival

Time 2026-05-06 17:23
Airport Václav Havel Airport Prague (LKPR)
Time Latitude Longitude Altitude Speed Heading
2026-05-06 16:19 51.41915 12.22035 428 ft 0 kts 15°
2026-05-06 16:20 51.41927 12.21958 427 ft 0 kts 15°
2026-05-06 16:22 51.41926 12.21958 427 ft 0 kts 15°
2026-05-06 16:44 51.41919 12.21955 424 ft 4 kts 17°
2026-05-06 16:44 51.41894 12.21940 431 ft 4 kts 17°
2026-05-06 16:45 51.41875 12.21937 421 ft 3 kts 308°
2026-05-06 16:45 51.41874 12.21938 421 ft 0 kts 306°
2026-05-06 16:49 51.41867 12.21903 429 ft 11 kts 244°
2026-05-06 16:49 51.41867 12.21692 426 ft 19 kts 282°
2026-05-06 16:49 51.41897 12.21502 427 ft 20 kts 285°
2026-05-06 16:49 51.41940 12.21268 425 ft 24 kts 288°
2026-05-06 16:50 51.41983 12.21000 423 ft 26 kts 284°
2026-05-06 16:50 51.41870 12.20837 422 ft 25 kts 196°
2026-05-06 16:50 51.41698 12.20765 426 ft 25 kts 194°
2026-05-06 16:50 51.41536 12.20693 428 ft 24 kts 195°
2026-05-06 16:51 51.41382 12.20626 439 ft 22 kts 194°
2026-05-06 16:51 51.41245 12.20565 440 ft 20 kts 195°
2026-05-06 16:51 51.41170 12.20669 430 ft 16 kts 91°
2026-05-06 16:51 51.41180 12.20880 443 ft 28 kts 86°
2026-05-06 16:52 51.41215 12.21600 454 ft 98 kts 85°
2026-05-06 16:52 51.41280 12.23001 468 ft 152 kts 86°
2026-05-06 16:52 51.41348 12.24779 908 ft 161 kts 85°
2026-05-06 16:52 51.41431 12.26584 1499 ft 165 kts 83°
2026-05-06 16:53 51.41548 12.28433 2148 ft 167 kts 85°
2026-05-06 16:53 51.41621 12.30385 2489 ft 190 kts 87°
2026-05-06 16:53 51.41700 12.32602 2863 ft 208 kts 87°
2026-05-06 16:53 51.41800 12.35009 3284 ft 226 kts 87°
2026-05-06 16:54 51.41919 12.37669 3641 ft 252 kts 87°
2026-05-06 16:54 51.42057 12.40564 4232 ft 267 kts 87°
2026-05-06 16:54 51.42220 12.43567 5051 ft 274 kts 86°
2026-05-06 16:54 51.42373 12.46639 5934 ft 278 kts 87°
2026-05-06 16:55 51.42502 12.49768 6761 ft 284 kts 88°
2026-05-06 16:55 51.42614 12.52800 7528 ft 289 kts 89°
2026-05-06 16:55 51.42459 12.56022 8330 ft 293 kts 104°
2026-05-06 16:55 51.41797 12.59103 9156 ft 293 kts 120°
2026-05-06 16:56 51.40760 12.61859 9945 ft 296 kts 126°
2026-05-06 16:56 51.39617 12.64740 10271 ft 318 kts 126°
2026-05-06 16:56 51.38378 12.67838 10513 ft 341 kts 126°
2026-05-06 16:56 51.37078 12.71090 11088 ft 351 kts 126°
2026-05-06 16:57 51.35757 12.74415 11810 ft 356 kts 125°
2026-05-06 16:57 51.34444 12.77728 12571 ft 359 kts 125°
2026-05-06 16:57 51.33105 12.81109 13379 ft 362 kts 125°
2026-05-06 16:57 51.31751 12.84522 14074 ft 365 kts 126°
2026-05-06 16:58 51.30379 12.87968 14705 ft 370 kts 126°
2026-05-06 16:58 51.28986 12.91450 15323 ft 374 kts 126°
2026-05-06 16:58 51.27573 12.94970 15929 ft 379 kts 126°
2026-05-06 16:58 51.26144 12.98530 16511 ft 383 kts 126°
2026-05-06 16:59 51.24698 13.02131 17114 ft 387 kts 126°
2026-05-06 16:59 51.23254 13.05723 17711 ft 392 kts 126°
2026-05-06 16:59 51.21777 13.09395 18268 ft 396 kts 126°
2026-05-06 16:59 51.20280 13.13107 18793 ft 400 kts 126°
2026-05-06 17:00 51.18772 13.16846 19327 ft 403 kts 126°
2026-05-06 17:00 51.17247 13.20621 19866 ft 407 kts 126°
2026-05-06 17:00 51.15714 13.24432 20403 ft 410 kts 126°
2026-05-06 17:00 51.14181 13.28286 20932 ft 414 kts 125°
2026-05-06 17:01 51.12639 13.32174 21453 ft 417 kts 125°
2026-05-06 17:01 51.11090 13.36080 21961 ft 421 kts 125°
2026-05-06 17:01 51.09521 13.40027 22452 ft 424 kts 125°
2026-05-06 17:01 51.07959 13.43944 22712 ft 426 kts 126°
2026-05-06 17:02 51.06361 13.47933 22766 ft 429 kts 126°
2026-05-06 17:02 51.04750 13.51938 22763 ft 430 kts 126°
2026-05-06 17:02 51.03134 13.55948 22763 ft 431 kts 126°
2026-05-06 17:02 51.01524 13.59955 22762 ft 431 kts 126°
2026-05-06 17:03 50.99920 13.63959 22763 ft 430 kts 125°
2026-05-06 17:03 50.98321 13.67975 22760 ft 430 kts 125°
2026-05-06 17:03 50.96729 13.71985 22761 ft 429 kts 125°
2026-05-06 17:03 50.95147 13.75970 22597 ft 423 kts 125°
2026-05-06 17:04 50.93588 13.79896 22343 ft 418 kts 126°
2026-05-06 17:04 50.91919 13.83552 22080 ft 413 kts 131°
2026-05-06 17:04 50.90157 13.87148 21814 ft 412 kts 131°
2026-05-06 17:04 50.88404 13.90718 21555 ft 410 kts 131°
2026-05-06 17:05 50.86657 13.94263 21294 ft 408 kts 131°
2026-05-06 17:05 50.84907 13.97788 21042 ft 406 kts 133°
2026-05-06 17:05 50.82881 14.00806 20789 ft 397 kts 149°
2026-05-06 17:05 50.80482 14.02871 20537 ft 391 kts 158°
2026-05-06 17:06 50.78025 14.04699 20297 ft 390 kts 158°
2026-05-06 17:06 50.75569 14.06499 20043 ft 388 kts 159°
2026-05-06 17:06 50.73120 14.08280 19797 ft 387 kts 159°
2026-05-06 17:06 50.70681 14.10052 19544 ft 385 kts 158°
2026-05-06 17:07 50.68290 14.11792 19311 ft 383 kts 158°
2026-05-06 17:07 50.65875 14.13550 19244 ft 380 kts 159°
2026-05-06 17:07 50.63504 14.15281 19001 ft 373 kts 159°
2026-05-06 17:07 50.61164 14.16991 18761 ft 370 kts 159°
2026-05-06 17:08 50.58833 14.18690 18524 ft 368 kts 159°
2026-05-06 17:08 50.56514 14.20376 18289 ft 367 kts 159°
2026-05-06 17:08 50.54202 14.22055 18051 ft 366 kts 160°
2026-05-06 17:08 50.51892 14.23730 17779 ft 365 kts 159°
2026-05-06 17:09 50.49627 14.25370 17518 ft 363 kts 159°
2026-05-06 17:09 50.47347 14.27021 17255 ft 362 kts 159°
2026-05-06 17:09 50.45063 14.28670 16983 ft 361 kts 159°
2026-05-06 17:09 50.42788 14.30309 16720 ft 359 kts 159°
2026-05-06 17:10 50.40520 14.31944 16457 ft 358 kts 159°
2026-05-06 17:10 50.38259 14.33579 16196 ft 357 kts 159°
2026-05-06 17:10 50.36009 14.35207 15943 ft 356 kts 159°
2026-05-06 17:10 50.33768 14.36824 15692 ft 355 kts 159°
2026-05-06 17:11 50.31530 14.38430 15439 ft 354 kts 159°
2026-05-06 17:11 50.29294 14.40030 15194 ft 353 kts 159°
2026-05-06 17:11 50.27122 14.41586 14936 ft 352 kts 160°
2026-05-06 17:11 50.24937 14.43152 14695 ft 351 kts 160°
2026-05-06 17:12 50.22721 14.44736 14449 ft 350 kts 160°
2026-05-06 17:12 50.20511 14.46316 14210 ft 349 kts 159°
2026-05-06 17:12 50.18325 14.47881 13834 ft 344 kts 159°
2026-05-06 17:12 50.16157 14.49434 13332 ft 342 kts 159°
2026-05-06 17:13 50.14000 14.50976 12835 ft 340 kts 159°
2026-05-06 17:13 50.11862 14.52499 12359 ft 337 kts 159°
2026-05-06 17:13 50.09730 14.54014 11874 ft 343 kts 159°
2026-05-06 17:13 50.07451 14.55664 11337 ft 371 kts 155°
2026-05-06 17:14 50.05371 14.57902 11010 ft 365 kts 141°
2026-05-06 17:14 50.03805 14.60931 10886 ft 355 kts 126°
2026-05-06 17:14 50.02519 14.64131 10595 ft 345 kts 125°
2026-05-06 17:14 50.01270 14.67293 10184 ft 340 kts 125°
2026-05-06 17:15 50.00061 14.70364 10047 ft 327 kts 125°
2026-05-06 17:15 49.98894 14.73337 9794 ft 316 kts 125°
2026-05-06 17:15 49.97796 14.76160 9544 ft 297 kts 125°
2026-05-06 17:15 49.96606 14.78686 9270 ft 283 kts 143°
2026-05-06 17:16 49.94967 14.80130 9027 ft 272 kts 169°
2026-05-06 17:16 49.93122 14.80218 8772 ft 266 kts 195°
2026-05-06 17:16 49.91495 14.78938 8499 ft 265 kts 222°
2026-05-06 17:16 49.90463 14.76593 8251 ft 267 kts 249°
2026-05-06 17:17 49.90261 14.73720 7997 ft 273 kts 271°
2026-05-06 17:17 49.90497 14.70776 7744 ft 276 kts 275°
2026-05-06 17:17 49.90789 14.67828 7503 ft 276 kts 275°
2026-05-06 17:17 49.91267 14.64915 6977 ft 286 kts 293°
2026-05-06 17:18 49.92377 14.62342 6581 ft 287 kts 304°
2026-05-06 17:18 49.93589 14.59899 6210 ft 285 kts 304°
2026-05-06 17:18 49.94789 14.57464 5833 ft 283 kts 304°
2026-05-06 17:18 49.95956 14.55077 5455 ft 280 kts 305°
2026-05-06 17:19 49.97129 14.52677 5085 ft 277 kts 305°
2026-05-06 17:19 49.98282 14.50315 4719 ft 269 kts 305°
2026-05-06 17:19 49.99382 14.48063 4364 ft 254 kts 305°
2026-05-06 17:19 50.00420 14.45934 4042 ft 242 kts 305°
2026-05-06 17:20 50.01414 14.43892 3733 ft 232 kts 306°
2026-05-06 17:20 50.02365 14.41938 3424 ft 222 kts 306°
2026-05-06 17:20 50.03264 14.40088 3142 ft 208 kts 307°
2026-05-06 17:20 50.04112 14.38343 2906 ft 193 kts 307°
2026-05-06 17:21 50.04888 14.36745 2627 ft 178 kts 307°
2026-05-06 17:21 50.05596 14.35286 2399 ft 165 kts 307°
2026-05-06 17:21 50.06264 14.33903 2182 ft 156 kts 307°
2026-05-06 17:21 50.06904 14.32567 1975 ft 152 kts 308°
2026-05-06 17:22 50.07537 14.31295 1786 ft 151 kts 309°
2026-05-06 17:22 50.08179 14.29976 1581 ft 151 kts 307°
2026-05-06 17:22 50.08791 14.28700 1350 ft 150 kts 307°
2026-05-06 17:22 50.09387 14.27460 1221 ft 140 kts 307°
2026-05-06 17:23 50.09884 14.26433 1209 ft 94 kts 307°
2026-05-06 17:23 50.10173 14.25833 1187 ft 44 kts 307°
2026-05-06 17:23 50.10362 14.25666 1187 ft 28 kts 352°
2026-05-06 17:23 50.10406 14.25660 1186 ft 0 kts
2026-05-06 17:24 50.10422 14.25662 1186 ft 7 kts
2026-05-06 17:24 50.10483 14.25705 1185 ft 11 kts 63°
2026-05-06 17:25 50.10501 14.25846 1185 ft 10 kts 79°
2026-05-06 17:25 50.10507 14.25896 1184 ft 16 kts 82°
2026-05-06 17:25 50.10461 14.26057 1186 ft 17 kts 127°
2026-05-06 17:25 50.10396 14.26192 1188 ft 15 kts 127°
2026-05-06 17:26 50.10340 14.26308 1190 ft 12 kts 127°
2026-05-06 17:26 50.10294 14.26405 1192 ft 11 kts 127°
2026-05-06 17:26 50.10258 14.26495 1195 ft 9 kts 100°
2026-05-06 17:26 50.10315 14.26589 1185 ft 13 kts 35°
2026-05-06 17:27 50.10339 14.26670 1180 ft 6 kts 111°
2026-05-06 17:27 50.10340 14.26713 1177 ft 4 kts 50°
2026-05-06 17:27 50.10363 14.26737 1175 ft 4 kts 34°
2026-05-06 17:27 50.10367 14.26741 1177 ft 0 kts 34°